Retour au catalogue

QAEM 100 R/B

ActifLEO
NORAD 58818·ROCKET BODY·🇮🇷 Iran

Lancé Jan 20, 2024 depuis Shahroud Space Center

Loading…

Prochains Passages (prochaines 24 heures)

TLE

FraisSource: Space-Track

Époque: Sep 14, 2026, 03:33 UTC

1 58818U 24015B   26257.14806832  .00000077  00000-0  53398-4 0  9992
2 58818  64.5027 174.4098 0034479 244.6418 115.1097 14.44330367139759

Suivez QAEM 100 R/B en temps réel avec AllMySat

Download on the App Store